DLH716 EDDF-RJTT

Flight info

Callsign DLH716
Flight time N/A
Altitude 31000
Route SULUS7S SULUS Z650 VEMUT/N0467F330 DCT PEPIK DCT BERVA DCT ERGOM DCT BUDOP DCT DVA DCT BULEN/N0459F350 DCT RIXEN UA17 YAVRU UA4 SIV UW706 TBN UN61 NOLGA DCT BARAD DCT SUBUT T916 BALUN/K0845F350 T916 EFMIF/K0852F370 T916 PIGAL M610 RULAD/K0845S1130 A343 POSOT B215 FKG W188 LIKMI W270 BOTKI/K0845S1190 W270 DKO W69 HUR B339 LADIX W34 VAPGU W100 ORAVA W201 UNSEK A326 DONVO G597 AGAVO/N0441F390 Y644 EGOBA Y697 LANAT Y71 XAC
Aircraft A343/H-SDE2E3FGHIJ4J5M1RWXY/LB1D1

Departure

Time N/A
Airport Frankfurt Main Airport (EDDF)

Arrival

Time 2026-05-01 08:37
Airport Tokyo Haneda International Airport (RJTT)
Time Latitude Longitude Altitude Speed Heading
2026-05-01 07:23 36.66501 130.49158 38780 ft 521 kts 109°
2026-05-01 07:24 36.62633 130.61771 38774 ft 519 kts 109°
2026-05-01 07:24 36.60051 130.70159 38777 ft 519 kts 109°
2026-05-01 07:25 36.57464 130.78539 38772 ft 519 kts 109°
2026-05-01 07:25 36.54872 130.86907 38775 ft 518 kts 109°
2026-05-01 07:26 36.52282 130.95244 38775 ft 515 kts 109°
2026-05-01 07:26 36.49699 131.03538 38771 ft 514 kts 109°
2026-05-01 07:27 36.47116 131.11807 38768 ft 513 kts 109°
2026-05-01 07:27 36.44527 131.20075 38766 ft 513 kts 109°
2026-05-01 07:28 36.41935 131.28323 38764 ft 513 kts 110°
2026-05-01 07:28 36.39334 131.36578 38749 ft 513 kts 110°
2026-05-01 07:29 36.36749 131.44778 38759 ft 513 kts 109°
2026-05-01 07:29 36.34328 131.53105 38753 ft 513 kts 107°
2026-05-01 07:30 36.31990 131.61461 38753 ft 513 kts 108°
2026-05-01 07:30 36.29628 131.69801 38754 ft 513 kts 108°
2026-05-01 07:31 36.27232 131.78137 38737 ft 513 kts 108°
2026-05-01 07:32 36.21216 131.98873 38735 ft 513 kts 109°
2026-05-01 07:33 36.17587 132.11316 38730 ft 511 kts 109°
2026-05-01 07:33 36.13952 132.23729 38724 ft 511 kts 109°
2026-05-01 07:34 36.10313 132.36094 38715 ft 509 kts 109°
2026-05-01 07:35 36.07889 132.44299 38713 ft 508 kts 110°
2026-05-01 07:35 36.05870 132.51117 38707 ft 508 kts 110°
2026-05-01 07:36 36.03037 132.60657 38707 ft 508 kts 110°
2026-05-01 07:36 36.00993 132.67519 38705 ft 508 kts 110°
2026-05-01 07:37 35.97339 132.79743 38702 ft 508 kts 110°
2026-05-01 07:37 35.94885 132.87926 38689 ft 508 kts 110°
2026-05-01 07:38 35.92425 132.96104 38691 ft 508 kts 110°
2026-05-01 07:39 35.88726 133.08359 38692 ft 509 kts 111°
2026-05-01 07:39 35.85010 133.20615 38685 ft 509 kts 111°
2026-05-01 07:40 35.82521 133.28796 38688 ft 510 kts 111°
2026-05-01 07:40 35.80025 133.36977 38674 ft 511 kts 111°
2026-05-01 07:41 35.77534 133.45119 38675 ft 511 kts 111°
2026-05-01 07:42 35.73762 133.57401 38669 ft 511 kts 111°
2026-05-01 07:42 35.71234 133.65599 38673 ft 511 kts 111°
2026-05-01 07:43 35.68709 133.73771 38672 ft 511 kts 111°
2026-05-01 07:43 35.64913 133.86014 38660 ft 511 kts 112°
2026-05-01 07:44 35.59832 134.02319 38671 ft 512 kts 112°
2026-05-01 07:45 35.57281 134.10470 38635 ft 510 kts 112°
2026-05-01 07:45 35.54732 134.18591 38637 ft 509 kts 112°
2026-05-01 07:46 35.52180 134.26703 38630 ft 508 kts 112°
2026-05-01 07:47 35.48350 134.38829 38639 ft 506 kts 112°
2026-05-01 07:47 35.45814 134.46834 38639 ft 507 kts 113°
2026-05-01 07:48 35.41974 134.58911 38627 ft 507 kts 113°
2026-05-01 07:48 35.39390 134.67010 38610 ft 506 kts 113°
2026-05-01 07:49 35.35546 134.79017 38616 ft 504 kts 113°
2026-05-01 07:50 35.32993 134.86963 38624 ft 504 kts 114°
2026-05-01 07:50 35.29134 134.98941 38625 ft 504 kts 114°
2026-05-01 07:51 35.26552 135.06928 38626 ft 504 kts 114°
2026-05-01 07:52 35.22676 135.18873 38621 ft 504 kts 114°
2026-05-01 07:52 35.20084 135.26831 38614 ft 504 kts 114°
2026-05-01 07:53 35.16187 135.38765 38615 ft 504 kts 115°
2026-05-01 07:53 35.13586 135.46707 38612 ft 503 kts 115°
2026-05-01 07:55 35.07072 135.66494 38609 ft 501 kts 116°
2026-05-01 07:56 35.01143 135.86454 38593 ft 506 kts 106°
2026-05-01 07:57 34.99024 135.99115 38587 ft 508 kts 105°
2026-05-01 07:58 34.96300 136.16080 38582 ft 510 kts 105°
2026-05-01 07:59 34.93519 136.32979 38563 ft 510 kts 106°
2026-05-01 08:00 34.89299 136.58332 38542 ft 507 kts 106°
2026-05-01 08:01 34.86470 136.75113 38553 ft 505 kts 107°
2026-05-01 08:02 34.84336 136.87686 38547 ft 505 kts 107°
2026-05-01 08:03 34.82310 137.00307 38552 ft 509 kts 104°
2026-05-01 08:03 34.81001 137.13163 38556 ft 511 kts 102°
2026-05-01 08:04 34.79173 137.30234 38557 ft 511 kts 103°
2026-05-01 08:05 34.77707 137.43084 38559 ft 512 kts 104°
2026-05-01 08:06 34.77119 137.56147 38569 ft 517 kts 97°
2026-05-01 08:07 34.76674 137.73621 38567 ft 517 kts 98°
2026-05-01 08:08 34.76333 137.86719 38549 ft 516 kts 98°
2026-05-01 08:09 34.75884 138.03182 38510 ft 516 kts 99°
2026-05-01 08:09 34.75637 138.11908 38526 ft 515 kts 99°
2026-05-01 08:10 34.75131 138.29248 38140 ft 513 kts 100°
2026-05-01 08:11 34.74862 138.37973 36659 ft 520 kts 100°
2026-05-01 08:11 34.74590 138.46773 35380 ft 521 kts 101°
2026-05-01 08:12 34.74312 138.55572 34150 ft 522 kts 102°
2026-05-01 08:12 34.74170 138.59989 33527 ft 522 kts 102°
2026-05-01 08:12 34.73879 138.68823 31955 ft 524 kts 102°
2026-05-01 08:13 34.73732 138.73246 31233 ft 524 kts 102°
2026-05-01 08:13 34.73582 138.77683 30560 ft 523 kts 102°
2026-05-01 08:13 34.73287 138.86429 29582 ft 514 kts 102°
2026-05-01 08:14 34.73138 138.90757 28981 ft 508 kts 103°
2026-05-01 08:14 34.72991 138.95022 28509 ft 502 kts 103°
2026-05-01 08:14 34.72841 138.99245 27994 ft 497 kts 104°
2026-05-01 08:14 34.72690 139.03430 27486 ft 492 kts 104°
2026-05-01 08:15 34.72541 139.07558 27016 ft 487 kts 104°
2026-05-01 08:15 34.72243 139.15660 26000 ft 477 kts 104°
2026-05-01 08:15 34.72093 139.19677 25512 ft 473 kts 104°
2026-05-01 08:16 34.71943 139.23652 25040 ft 469 kts 105°
2026-05-01 08:16 34.71793 139.27603 24554 ft 465 kts 105°
2026-05-01 08:16 34.71642 139.31525 24010 ft 463 kts 105°
2026-05-01 08:16 34.71494 139.35438 23366 ft 465 kts 105°
2026-05-01 08:17 34.71356 139.39373 22674 ft 467 kts 105°
2026-05-01 08:17 34.71209 139.43324 21924 ft 468 kts 105°
2026-05-01 08:17 34.71059 139.47288 21197 ft 469 kts 105°
2026-05-01 08:17 34.70934 139.51270 20485 ft 475 kts 101°
2026-05-01 08:18 34.71425 139.55323 19761 ft 497 kts 82°
2026-05-01 08:18 34.75047 139.62676 18428 ft 523 kts 47°
2026-05-01 08:19 34.81275 139.67062 17139 ft 515 kts 11°
2026-05-01 08:19 34.84742 139.67653 16626 ft 489 kts 353°
2026-05-01 08:19 34.87991 139.67372 16158 ft 450 kts 343°
2026-05-01 08:19 34.90956 139.66836 15687 ft 423 kts 342°
2026-05-01 08:20 34.93800 139.66313 15225 ft 402 kts 342°
2026-05-01 08:20 34.96507 139.65824 14739 ft 386 kts 342°
2026-05-01 08:20 34.99111 139.65367 14265 ft 371 kts 342°
2026-05-01 08:20 35.01625 139.64931 13803 ft 359 kts 342°
2026-05-01 08:21 35.04072 139.64508 13347 ft 351 kts 342°
2026-05-01 08:21 35.06469 139.64075 12826 ft 346 kts 342°
2026-05-01 08:21 35.08834 139.63634 12310 ft 342 kts 342°
2026-05-01 08:21 35.11181 139.63186 11967 ft 341 kts 342°
2026-05-01 08:22 35.13515 139.62732 11689 ft 337 kts 342°
2026-05-01 08:22 35.15822 139.62278 11417 ft 334 kts 342°
2026-05-01 08:22 35.18109 139.61821 11135 ft 332 kts 342°
2026-05-01 08:22 35.19618 139.61517 10952 ft 331 kts 342°
2026-05-01 08:23 35.21882 139.61055 10703 ft 329 kts 343°
2026-05-01 08:23 35.24135 139.60576 10434 ft 328 kts 342°
2026-05-01 08:23 35.26375 139.60084 10155 ft 327 kts 342°
2026-05-01 08:23 35.28607 139.59584 9893 ft 325 kts 342°
2026-05-01 08:24 35.31550 139.58912 9534 ft 323 kts 342°
2026-05-01 08:24 35.33038 139.58569 9358 ft 322 kts 342°
2026-05-01 08:24 35.35232 139.58055 9071 ft 321 kts 342°
2026-05-01 08:24 35.37423 139.57542 8783 ft 319 kts 342°
2026-05-01 08:25 35.39571 139.57043 8498 ft 317 kts 342°
2026-05-01 08:25 35.41732 139.56527 8217 ft 315 kts 342°
2026-05-01 08:25 35.43881 139.56002 7944 ft 315 kts 342°
2026-05-01 08:25 35.46024 139.55478 7664 ft 313 kts 342°
2026-05-01 08:26 35.48157 139.54956 7393 ft 312 kts 342°
2026-05-01 08:26 35.50277 139.54433 7151 ft 310 kts 342°
2026-05-01 08:26 35.52390 139.53904 6905 ft 309 kts 342°
2026-05-01 08:26 35.54498 139.53382 6654 ft 308 kts 342°
2026-05-01 08:27 35.56592 139.52865 6401 ft 306 kts 342°
2026-05-01 08:27 35.58679 139.52345 6201 ft 306 kts 342°
2026-05-01 08:27 35.60766 139.51824 5965 ft 305 kts 342°
2026-05-01 08:27 35.62834 139.51332 5710 ft 300 kts 342°
2026-05-01 08:28 35.64869 139.50850 5467 ft 296 kts 342°
2026-05-01 08:28 35.66893 139.50365 5218 ft 296 kts 342°
2026-05-01 08:28 35.68909 139.49882 4969 ft 295 kts 342°
2026-05-01 08:28 35.70932 139.49486 4814 ft 294 kts 350°
2026-05-01 08:29 35.72958 139.49735 4801 ft 302 kts 12°
2026-05-01 08:29 35.74731 139.50997 4813 ft 292 kts 46°
2026-05-01 08:29 35.75769 139.53094 4454 ft 289 kts 76°
2026-05-01 08:29 35.76277 139.55515 4079 ft 295 kts 83°
2026-05-01 08:30 35.76735 139.57940 3954 ft 287 kts 81°
2026-05-01 08:30 35.77212 139.60285 3859 ft 278 kts 81°
2026-05-01 08:30 35.77475 139.62578 3716 ft 259 kts 105°
2026-05-01 08:30 35.76832 139.64453 3594 ft 224 kts 143°
2026-05-01 08:31 35.75639 139.65469 3525 ft 200 kts 162°
2026-05-01 08:31 35.74425 139.66223 3457 ft 191 kts 163°
2026-05-01 08:31 35.73267 139.66960 3362 ft 184 kts 162°
2026-05-01 08:31 35.72167 139.67697 3252 ft 176 kts 162°
2026-05-01 08:32 35.71134 139.68402 3234 ft 162 kts 162°
2026-05-01 08:32 35.70194 139.69056 3207 ft 148 kts 162°
2026-05-01 08:32 35.69350 139.69653 3106 ft 133 kts 163°
2026-05-01 08:32 35.68576 139.70188 2935 ft 125 kts 166°
2026-05-01 08:33 35.67768 139.70615 2775 ft 130 kts 172°
2026-05-01 08:33 35.66922 139.71096 2484 ft 144 kts 159°
2026-05-01 08:33 35.66114 139.71914 2103 ft 147 kts 151°
2026-05-01 08:33 35.65370 139.72658 1977 ft 129 kts 160°
2026-05-01 08:34 35.64620 139.73226 1890 ft 129 kts 165°
2026-05-01 08:34 35.63828 139.73735 1743 ft 130 kts 166°
2026-05-01 08:34 35.62998 139.74179 1642 ft 132 kts 168°
2026-05-01 08:34 35.62166 139.74640 1497 ft 131 kts 164°
2026-05-01 08:35 35.61387 139.75278 1302 ft 134 kts 158°
2026-05-01 08:35 35.60611 139.75849 1052 ft 127 kts 162°
2026-05-01 08:35 35.59842 139.76372 873 ft 126 kts 159°
2026-05-01 08:35 35.59081 139.76916 676 ft 127 kts 156°
2026-05-01 08:36 35.58318 139.77446 464 ft 124 kts 156°
2026-05-01 08:36 35.57580 139.77973 309 ft 122 kts 155°
2026-05-01 08:36 35.56853 139.78482 127 ft 119 kts 156°
2026-05-01 08:36 35.56152 139.78973 32 ft 109 kts 156°
2026-05-01 08:37 35.55645 139.79326 28 ft 63 kts 149°
2026-05-01 08:37 35.55339 139.79543 28 ft 40 kts 150°
2026-05-01 08:37 35.55124 139.79687 28 ft 26 kts 156°
2026-05-01 08:37 35.54996 139.79734 28 ft 15 kts 167°
2026-05-01 08:38 35.54895 139.79747 27 ft 11 kts 181°
2026-05-01 08:38 35.54838 139.79693 27 ft 11 kts 250°
2026-05-01 08:38 35.54869 139.79621 27 ft 11 kts 324°
2026-05-01 08:38 35.54935 139.79572 27 ft 12 kts 329°
2026-05-01 08:39 35.55013 139.79519 27 ft 14 kts 330°
2026-05-01 08:39 35.55098 139.79457 27 ft 15 kts 328°
2026-05-01 08:39 35.55193 139.79389 27 ft 16 kts 331°
2026-05-01 08:39 35.55278 139.79327 27 ft 9 kts 326°
2026-05-01 08:40 35.55308 139.79188 28 ft 9 kts 304°
2026-05-01 08:40 35.55361 139.79141 28 ft 10 kts 328°
2026-05-01 08:40 35.55425 139.79090 28 ft 12 kts 320°
2026-05-01 08:41 35.55431 139.79001 28 ft 11 kts 247°
2026-05-01 08:41 35.55387 139.78922 28 ft 10 kts 249°
2026-05-01 08:41 35.55397 139.78835 28 ft 11 kts 283°
2026-05-01 08:41 35.55403 139.78803 28 ft 3 kts 283°
2026-05-01 08:42 35.55404 139.78796 28 ft 0 kts 283°